DWI4603 MGGT-MDSD

Flight info

Callsign DWI4603
Flight time 2h 8m
Altitude 40000
Route OTRUS2A OTRUS UR644 PENRU UZ894 PESTO UL349 IDACO DCT GABRA GABRA2H
Aircraft B38M/M-SDE1FGHILORVWXY/HB1

Departure

Time 2026-04-22 02:01
Airport La Aurora International Airport (MGGT)

Arrival

Time 2026-04-22 04:10
Airport Las Américas International Airport (MDSD)
Time Latitude Longitude Altitude Speed Heading
2026-04-22 01:39 14.59111 -90.52915 4961 ft 0 kts 106°
2026-04-22 01:48 14.59114 -90.52926 4961 ft 4 kts 107°
2026-04-22 01:48 14.59122 -90.52951 4954 ft 4 kts 103°
2026-04-22 01:48 14.59118 -90.52972 4956 ft 4 kts 39°
2026-04-22 01:49 14.59095 -90.52985 4955 ft 4 kts 20°
2026-04-22 01:49 14.59084 -90.52989 4955 ft 1 kts 17°
2026-04-22 01:53 14.59087 -90.52988 4953 ft 2 kts 17°
2026-04-22 01:53 14.59114 -90.52979 4952 ft 6 kts 17°
2026-04-22 01:53 14.59167 -90.52962 4954 ft 9 kts 18°
2026-04-22 01:53 14.59228 -90.52920 4955 ft 12 kts 48°
2026-04-22 01:54 14.59234 -90.52834 4954 ft 14 kts 107°
2026-04-22 01:54 14.59204 -90.52742 4954 ft 13 kts 116°
2026-04-22 01:54 14.59147 -90.52702 4955 ft 9 kts 189°
2026-04-22 01:54 14.59096 -90.52717 4955 ft 7 kts 196°
2026-04-22 01:55 14.59057 -90.52729 4955 ft 5 kts 199°
2026-04-22 01:55 14.59023 -90.52741 4955 ft 6 kts 199°
2026-04-22 01:55 14.58974 -90.52757 4955 ft 9 kts 197°
2026-04-22 01:55 14.58911 -90.52775 4955 ft 11 kts 197°
2026-04-22 01:56 14.58838 -90.52763 4955 ft 12 kts 157°
2026-04-22 01:56 14.58783 -90.52705 4954 ft 9 kts 114°
2026-04-22 01:56 14.58769 -90.52687 4954 ft 1 kts 144°
2026-04-22 01:56 14.58756 -90.52683 4953 ft 1 kts 175°
2026-04-22 01:57 14.58729 -90.52689 4952 ft 8 kts 195°
2026-04-22 01:57 14.58650 -90.52714 4948 ft 16 kts 197°
2026-04-22 01:57 14.58521 -90.52757 4943 ft 21 kts 198°
2026-04-22 01:57 14.58391 -90.52798 4944 ft 19 kts 197°
2026-04-22 01:58 14.58288 -90.52831 4942 ft 14 kts 197°
2026-04-22 01:58 14.58182 -90.52865 4940 ft 18 kts 197°
2026-04-22 01:58 14.58101 -90.52892 4938 ft 18 kts 198°
2026-04-22 01:58 14.57936 -90.52947 4926 ft 22 kts 197°
2026-04-22 01:59 14.57828 -90.52980 4923 ft 26 kts 197°
2026-04-22 01:59 14.57631 -90.53045 4920 ft 20 kts 198°
2026-04-22 01:59 14.57494 -90.53089 4915 ft 21 kts 197°
2026-04-22 01:59 14.57349 -90.53135 4917 ft 22 kts 198°
2026-04-22 02:00 14.57247 -90.53169 4914 ft 23 kts 197°
2026-04-22 02:00 14.57113 -90.53210 4919 ft 14 kts 185°
2026-04-22 02:00 14.57111 -90.53139 4915 ft 12 kts 14°
2026-04-22 02:00 14.57185 -90.53117 4913 ft 30 kts 18°
2026-04-22 02:01 14.57597 -90.52983 4904 ft 93 kts 17°
2026-04-22 02:01 14.58398 -90.52729 4927 ft 146 kts 18°
2026-04-22 02:01 14.59499 -90.52357 5040 ft 182 kts 19°
2026-04-22 02:01 14.60730 -90.51956 5759 ft 184 kts 15°
2026-04-22 02:02 14.62001 -90.51619 6425 ft 197 kts 15°
2026-04-22 02:02 14.63409 -90.51289 6827 ft 216 kts 14°
2026-04-22 02:02 14.64761 -90.50534 7167 ft 235 kts 49°
2026-04-22 02:02 14.65661 -90.48366 7607 ft 262 kts 69°
2026-04-22 02:03 14.66080 -90.47172 8076 ft 264 kts 68°
2026-04-22 02:03 14.66765 -90.45364 8658 ft 277 kts 67°
2026-04-22 02:03 14.67513 -90.43485 9200 ft 287 kts 66°
2026-04-22 02:03 14.68284 -90.41588 10065 ft 286 kts 66°
2026-04-22 02:04 14.70009 -90.37713 11016 ft 313 kts 54°
2026-04-22 02:04 14.71621 -90.36192 11668 ft 316 kts 30°
2026-04-22 02:04 14.73684 -90.35364 12369 ft 323 kts 20°
2026-04-22 02:05 14.75598 -90.34152 13029 ft 325 kts 48°
2026-04-22 02:05 14.76755 -90.32194 13776 ft 328 kts 71°
2026-04-22 02:05 14.77294 -90.29857 14442 ft 332 kts 79°
2026-04-22 02:05 14.77764 -90.27507 15135 ft 337 kts 78°
2026-04-22 02:06 14.78254 -90.25156 15817 ft 341 kts 78°
2026-04-22 02:06 14.78764 -90.22750 16481 ft 345 kts 78°
2026-04-22 02:06 14.79284 -90.20316 17143 ft 349 kts 78°
2026-04-22 02:06 14.79814 -90.17851 17781 ft 353 kts 78°
2026-04-22 02:07 14.80349 -90.15360 18410 ft 357 kts 78°
2026-04-22 02:07 14.80893 -90.12835 18947 ft 361 kts 78°
2026-04-22 02:07 14.81439 -90.10296 19495 ft 363 kts 78°
2026-04-22 02:07 14.81988 -90.07739 20044 ft 366 kts 78°
2026-04-22 02:08 14.82544 -90.05152 20569 ft 369 kts 78°
2026-04-22 02:08 14.83102 -90.02555 21106 ft 372 kts 78°
2026-04-22 02:08 14.83664 -89.99933 21644 ft 375 kts 78°
2026-04-22 02:08 14.84229 -89.97295 22176 ft 378 kts 77°
2026-04-22 02:09 14.84800 -89.94632 22695 ft 381 kts 77°
2026-04-22 02:09 14.85375 -89.91945 23225 ft 384 kts 77°
2026-04-22 02:09 14.85953 -89.89244 23742 ft 387 kts 77°
2026-04-22 02:09 14.86536 -89.86514 24155 ft 391 kts 77°
2026-04-22 02:10 14.87123 -89.83763 24576 ft 394 kts 78°
2026-04-22 02:10 14.87716 -89.80984 24974 ft 398 kts 78°
2026-04-22 02:10 14.88308 -89.78209 25382 ft 401 kts 78°
2026-04-22 02:10 14.88911 -89.75378 25788 ft 405 kts 78°
2026-04-22 02:11 14.89519 -89.72527 26208 ft 408 kts 78°
2026-04-22 02:11 14.90131 -89.69647 26602 ft 412 kts 78°
2026-04-22 02:11 14.90751 -89.66734 26995 ft 415 kts 78°
2026-04-22 02:11 14.91374 -89.63802 27377 ft 419 kts 78°
2026-04-22 02:12 14.92000 -89.60855 27781 ft 421 kts 78°
2026-04-22 02:12 14.92630 -89.57884 28180 ft 424 kts 78°
2026-04-22 02:12 14.93265 -89.54892 28569 ft 427 kts 78°
2026-04-22 02:12 14.93904 -89.51876 28954 ft 430 kts 78°
2026-04-22 02:13 14.94544 -89.48852 29346 ft 432 kts 78°
2026-04-22 02:13 14.95190 -89.45798 29726 ft 435 kts 78°
2026-04-22 02:13 14.95838 -89.42728 30078 ft 439 kts 78°
2026-04-22 02:13 14.96541 -89.39645 30397 ft 442 kts 73°
2026-04-22 02:14 14.97545 -89.36682 30723 ft 444 kts 71°
2026-04-22 02:14 14.98572 -89.33664 31024 ft 446 kts 71°
2026-04-22 02:14 14.99614 -89.30615 31327 ft 449 kts 70°
2026-04-22 02:14 15.00659 -89.27562 31640 ft 451 kts 70°
2026-04-22 02:15 15.01708 -89.24495 31948 ft 453 kts 70°
2026-04-22 02:15 15.02774 -89.21411 32253 ft 456 kts 70°
2026-04-22 02:15 15.03862 -89.18320 32543 ft 458 kts 70°
2026-04-22 02:15 15.04951 -89.15215 32838 ft 461 kts 70°
2026-04-22 02:16 15.06047 -89.12087 33129 ft 463 kts 70°
2026-04-22 02:16 15.07133 -89.08983 33407 ft 465 kts 70°
2026-04-22 02:16 15.08251 -89.05790 33695 ft 467 kts 70°
2026-04-22 02:16 15.09344 -89.02663 33978 ft 470 kts 70°
2026-04-22 02:17 15.10456 -88.99482 34233 ft 472 kts 70°
2026-04-22 02:17 15.11577 -88.96273 34470 ft 474 kts 70°
2026-04-22 02:17 15.12701 -88.93054 34738 ft 475 kts 70°
2026-04-22 02:17 15.13822 -88.89841 35057 ft 475 kts 70°
2026-04-22 02:18 15.14948 -88.86615 35390 ft 474 kts 70°
2026-04-22 02:18 15.16066 -88.83406 35710 ft 474 kts 70°
2026-04-22 02:18 15.17186 -88.80193 36026 ft 473 kts 70°
2026-04-22 02:18 15.18301 -88.76992 36326 ft 472 kts 70°
2026-04-22 02:19 15.19425 -88.73808 36624 ft 472 kts 69°
2026-04-22 02:19 15.20620 -88.70637 36908 ft 472 kts 68°
2026-04-22 02:19 15.21808 -88.67475 37197 ft 471 kts 68°
2026-04-22 02:19 15.22990 -88.64311 37496 ft 470 kts 69°
2026-04-22 02:20 15.24155 -88.61192 37770 ft 470 kts 69°
2026-04-22 02:20 15.25346 -88.57998 38030 ft 469 kts 69°
2026-04-22 02:20 15.26520 -88.54849 38280 ft 469 kts 69°
2026-04-22 02:20 15.27679 -88.51741 38523 ft 468 kts 69°
2026-04-22 02:21 15.28864 -88.48560 38747 ft 468 kts 69°
2026-04-22 02:21 15.30019 -88.45457 38943 ft 467 kts 69°
2026-04-22 02:21 15.31187 -88.42317 39122 ft 467 kts 69°
2026-04-22 02:21 15.32357 -88.39172 39297 ft 466 kts 69°
2026-04-22 02:22 15.33522 -88.36039 39455 ft 466 kts 69°
2026-04-22 02:22 15.34688 -88.32900 39616 ft 466 kts 69°
2026-04-22 02:22 15.35851 -88.29768 39777 ft 465 kts 69°
2026-04-22 02:22 15.37011 -88.26642 39924 ft 465 kts 69°
2026-04-22 02:23 15.38173 -88.23510 40039 ft 465 kts 69°
2026-04-22 02:23 15.40474 -88.17303 40049 ft 463 kts 69°
2026-04-22 02:24 15.42788 -88.11057 40048 ft 463 kts 69°
2026-04-22 02:24 15.45096 -88.04821 40045 ft 464 kts 69°
2026-04-22 02:25 15.47406 -87.98570 40046 ft 463 kts 69°
2026-04-22 02:25 15.49710 -87.92331 40044 ft 464 kts 69°
2026-04-22 02:26 15.52016 -87.86080 40046 ft 464 kts 69°
2026-04-22 02:26 15.54321 -87.79826 40044 ft 464 kts 69°
2026-04-22 02:27 15.56611 -87.73610 40049 ft 464 kts 69°
2026-04-22 02:27 15.58911 -87.67356 40049 ft 464 kts 69°
2026-04-22 02:28 15.61215 -87.61086 40052 ft 464 kts 69°
2026-04-22 02:28 15.63512 -87.54828 40047 ft 464 kts 69°
2026-04-22 02:29 15.65814 -87.48552 40042 ft 465 kts 69°
2026-04-22 02:29 15.68097 -87.42322 40044 ft 465 kts 69°
2026-04-22 02:30 15.70394 -87.36044 40043 ft 465 kts 69°
2026-04-22 02:30 15.72693 -87.29757 40049 ft 465 kts 69°
2026-04-22 02:31 15.74988 -87.23475 40050 ft 465 kts 69°
2026-04-22 02:31 15.77282 -87.17190 40051 ft 465 kts 69°
2026-04-22 02:32 15.79576 -87.10895 40046 ft 466 kts 69°
2026-04-22 02:32 15.81867 -87.04604 40046 ft 466 kts 69°
2026-04-22 02:33 15.84149 -86.98333 40046 ft 466 kts 69°
2026-04-22 02:33 15.86441 -86.92027 40046 ft 466 kts 69°
2026-04-22 02:34 15.88728 -86.85726 40047 ft 466 kts 69°
2026-04-22 02:34 15.91016 -86.79417 40048 ft 466 kts 69°
2026-04-22 02:35 15.93291 -86.73138 40045 ft 467 kts 69°
2026-04-22 02:35 15.95579 -86.66818 40045 ft 467 kts 69°
2026-04-22 02:36 15.97865 -86.60496 40046 ft 467 kts 69°
2026-04-22 02:36 16.00151 -86.54166 40046 ft 467 kts 69°
2026-04-22 02:37 16.02435 -86.47837 40046 ft 467 kts 69°
2026-04-22 02:37 16.04716 -86.41506 40048 ft 467 kts 69°
2026-04-22 02:38 16.06982 -86.35215 40050 ft 467 kts 69°
2026-04-22 02:38 16.09261 -86.28877 40051 ft 468 kts 69°
2026-04-22 02:39 16.11538 -86.22541 40058 ft 468 kts 69°
2026-04-22 02:39 16.13822 -86.16178 40060 ft 468 kts 69°
2026-04-22 02:40 16.16091 -86.09849 40064 ft 468 kts 69°
2026-04-22 02:40 16.18369 -86.03491 40065 ft 468 kts 69°
2026-04-22 02:41 16.20623 -85.97190 40068 ft 468 kts 69°
2026-04-22 02:41 16.22896 -85.90830 40066 ft 468 kts 69°
2026-04-22 02:42 16.25168 -85.84468 40064 ft 468 kts 69°
2026-04-22 02:42 16.27434 -85.78113 40066 ft 469 kts 69°
2026-04-22 02:43 16.29704 -85.71743 40063 ft 469 kts 69°
2026-04-22 02:43 16.31584 -85.66462 40067 ft 469 kts 69°
2026-04-22 02:44 16.34236 -85.59001 40063 ft 469 kts 69°
2026-04-22 02:44 16.36488 -85.52663 40065 ft 469 kts 69°
2026-04-22 02:45 16.38747 -85.46294 40062 ft 469 kts 69°
2026-04-22 02:45 16.40644 -85.40940 40063 ft 470 kts 69°
2026-04-22 02:46 16.45329 -85.27699 40066 ft 470 kts 69°
2026-04-22 02:46 16.49085 -85.16980 40065 ft 470 kts 69°
2026-04-22 02:47 16.53612 -85.04200 40065 ft 470 kts 70°
2026-04-22 02:47 16.58099 -84.91474 40068 ft 470 kts 69°
2026-04-22 02:48 16.62603 -84.78651 40065 ft 470 kts 69°
2026-04-22 02:48 16.67081 -84.65828 40067 ft 470 kts 70°
2026-04-22 02:49 16.71537 -84.52990 40068 ft 470 kts 69°
2026-04-22 02:49 16.75432 -84.41876 40066 ft 470 kts 69°
2026-04-22 02:50 16.79278 -84.30804 40066 ft 470 kts 70°
2026-04-22 02:50 16.83752 -84.17944 40068 ft 470 kts 68°
2026-04-22 02:51 16.88244 -84.05114 40067 ft 470 kts 68°
2026-04-22 02:51 16.92659 -83.92328 40068 ft 471 kts 69°
2026-04-22 02:52 16.97087 -83.79436 40068 ft 471 kts 70°
2026-04-22 02:52 17.01514 -83.66524 40069 ft 472 kts 70°
2026-04-22 02:53 17.05925 -83.53603 40069 ft 472 kts 69°
2026-04-22 02:53 17.10394 -83.40688 40064 ft 473 kts 70°
2026-04-22 02:54 17.14784 -83.27729 40066 ft 473 kts 70°
2026-04-22 02:54 17.19213 -83.14833 40069 ft 473 kts 70°
2026-04-22 02:55 17.23593 -83.01842 40066 ft 474 kts 71°
2026-04-22 02:55 17.28035 -82.88865 40069 ft 474 kts 70°
2026-04-22 02:56 17.32440 -82.75826 40069 ft 475 kts 70°
2026-04-22 02:56 17.36819 -82.62766 40073 ft 475 kts 70°
2026-04-22 02:57 17.41232 -82.49701 40070 ft 476 kts 69°
2026-04-22 02:57 17.45629 -82.36693 40072 ft 477 kts 70°
2026-04-22 02:58 17.50036 -82.23579 40062 ft 477 kts 70°
2026-04-22 02:58 17.52534 -82.16053 40065 ft 477 kts 70°
2026-04-22 02:59 17.54727 -82.09486 40067 ft 477 kts 70°
2026-04-22 02:59 17.56246 -82.02761 40079 ft 475 kts 88°
2026-04-22 03:00 17.56703 -81.95824 40077 ft 478 kts 86°
2026-04-22 03:00 17.57464 -81.82714 40065 ft 478 kts 87°
2026-04-22 03:01 17.58333 -81.68875 40066 ft 478 kts 86°
2026-04-22 03:01 17.59120 -81.54968 40060 ft 478 kts 88°
2026-04-22 03:02 17.59883 -81.41013 40063 ft 479 kts 88°
2026-04-22 03:02 17.60674 -81.27071 40075 ft 479 kts 87°
2026-04-22 03:03 17.61426 -81.13108 40061 ft 480 kts 86°
2026-04-22 03:03 17.62209 -80.99145 40064 ft 480 kts 87°
2026-04-22 03:04 17.62966 -80.85181 40062 ft 480 kts 86°
2026-04-22 03:04 17.63523 -80.74754 40060 ft 480 kts 87°
2026-04-22 03:05 17.64198 -80.60853 40065 ft 480 kts 88°
2026-04-22 03:05 17.64877 -80.46832 40064 ft 481 kts 88°
2026-04-22 03:06 17.65527 -80.32819 40058 ft 481 kts 88°
2026-04-22 03:06 17.66188 -80.18772 40057 ft 482 kts 87°
2026-04-22 03:07 17.66859 -80.04814 40061 ft 482 kts 88°
2026-04-22 03:07 17.67472 -79.90768 40057 ft 483 kts 88°
2026-04-22 03:08 17.67864 -79.81739 40057 ft 483 kts 88°
2026-04-22 03:08 17.68271 -79.72251 40056 ft 483 kts 88°
2026-04-22 03:09 17.68919 -79.58134 40060 ft 483 kts 88°
2026-04-22 03:09 17.69476 -79.44083 40053 ft 484 kts 88°
2026-04-22 03:10 17.69736 -79.38459 40054 ft 484 kts 88°
2026-04-22 03:10 17.70253 -79.26440 40054 ft 484 kts 88°
2026-04-22 03:11 17.70839 -79.12304 40054 ft 484 kts 87°
2026-04-22 03:11 17.71398 -78.98196 40052 ft 485 kts 89°
2026-04-22 03:12 17.71972 -78.84041 40053 ft 485 kts 88°
2026-04-22 03:12 17.72785 -78.62857 40051 ft 486 kts 89°
2026-04-22 03:13 17.73346 -78.48672 40052 ft 486 kts 89°
2026-04-22 03:13 17.73905 -78.34490 40053 ft 486 kts 89°
2026-04-22 03:14 17.74276 -78.23876 40055 ft 487 kts 88°
2026-04-22 03:14 17.74773 -78.09627 40053 ft 487 kts 88°
2026-04-22 03:15 17.75288 -77.95429 40054 ft 487 kts 90°
2026-04-22 03:15 17.75664 -77.84823 40057 ft 488 kts 88°
2026-04-22 03:16 17.76152 -77.70589 40055 ft 488 kts 88°
2026-04-22 03:16 17.76637 -77.56439 40050 ft 488 kts 88°
2026-04-22 03:17 17.77105 -77.42186 40049 ft 489 kts 88°
2026-04-22 03:17 17.77553 -77.27937 40038 ft 489 kts 88°
2026-04-22 03:18 17.78039 -77.13664 40033 ft 489 kts 89°
2026-04-22 03:18 17.78443 -76.99391 40037 ft 490 kts 88°
2026-04-22 03:19 17.78866 -76.85088 40049 ft 490 kts 89°
2026-04-22 03:19 17.79297 -76.70869 40045 ft 490 kts 89°
2026-04-22 03:20 17.79666 -76.56558 40043 ft 490 kts 88°
2026-04-22 03:20 17.80083 -76.42281 40045 ft 490 kts 89°
2026-04-22 03:21 17.80457 -76.27949 40052 ft 490 kts 90°
2026-04-22 03:21 17.80839 -76.13648 40048 ft 491 kts 90°
2026-04-22 03:22 17.81228 -75.99331 40057 ft 491 kts 89°
2026-04-22 03:22 17.81577 -75.85012 40059 ft 491 kts 89°
2026-04-22 03:23 17.81873 -75.70660 40056 ft 491 kts 90°
2026-04-22 03:23 17.82193 -75.56319 40059 ft 492 kts 89°
2026-04-22 03:24 17.82532 -75.41979 40052 ft 492 kts 89°
2026-04-22 03:24 17.82888 -75.27624 40047 ft 492 kts 88°
2026-04-22 03:25 17.83093 -75.16944 40050 ft 492 kts 90°
2026-04-22 03:25 17.83396 -75.02489 40045 ft 492 kts 90°
2026-04-22 03:26 17.83653 -74.88209 40045 ft 492 kts 90°
2026-04-22 03:26 17.83927 -74.73817 40044 ft 493 kts 89°
2026-04-22 03:27 17.84241 -74.59456 40054 ft 493 kts 90°
2026-04-22 03:27 17.84481 -74.45039 40053 ft 493 kts 91°
2026-04-22 03:28 17.84671 -74.30667 40043 ft 493 kts 89°
2026-04-22 03:28 17.84938 -74.16272 40053 ft 493 kts 90°
2026-04-22 03:29 17.85308 -74.06012 40053 ft 494 kts 88°
2026-04-22 03:29 17.85536 -74.00021 40051 ft 494 kts 89°
2026-04-22 03:30 17.85852 -73.91666 40051 ft 494 kts 89°
2026-04-22 03:30 17.86121 -73.84446 40050 ft 494 kts 89°
2026-04-22 03:31 17.86343 -73.78460 40045 ft 494 kts 89°
2026-04-22 03:31 17.86652 -73.70024 40049 ft 494 kts 89°
2026-04-22 03:32 17.86914 -73.62808 40050 ft 494 kts 89°
2026-04-22 03:32 17.87173 -73.55579 40049 ft 495 kts 89°
2026-04-22 03:33 17.87428 -73.48409 40047 ft 495 kts 89°
2026-04-22 03:33 17.87682 -73.41188 40048 ft 495 kts 89°
2026-04-22 03:34 17.87933 -73.33963 40048 ft 495 kts 89°
2026-04-22 03:34 17.88137 -73.27940 40048 ft 495 kts 89°
2026-04-22 03:35 17.88381 -73.20710 40047 ft 496 kts 89°
2026-04-22 03:35 17.88621 -73.13477 40044 ft 496 kts 89°
2026-04-22 03:36 17.88860 -73.06227 40046 ft 496 kts 89°
2026-04-22 03:36 17.89095 -72.98990 40044 ft 496 kts 89°
2026-04-22 03:37 17.89328 -72.91748 40043 ft 496 kts 89°
2026-04-22 03:37 17.89559 -72.84504 40044 ft 496 kts 89°
2026-04-22 03:38 17.89801 -72.77300 40040 ft 496 kts 89°
2026-04-22 03:38 17.90050 -72.70046 40045 ft 497 kts 89°
2026-04-22 03:39 17.90295 -72.62804 40042 ft 497 kts 89°
2026-04-22 03:39 17.90539 -72.55552 40039 ft 497 kts 89°
2026-04-22 03:40 17.90780 -72.48299 40039 ft 497 kts 89°
2026-04-22 03:40 17.91020 -72.41053 40041 ft 497 kts 89°
2026-04-22 03:41 17.91257 -72.33790 40040 ft 497 kts 89°
2026-04-22 03:41 17.91490 -72.26577 40040 ft 497 kts 89°
2026-04-22 03:42 17.91722 -72.19329 40038 ft 497 kts 89°
2026-04-22 03:42 17.91951 -72.12056 40044 ft 497 kts 89°
2026-04-22 03:43 17.92177 -72.04799 40045 ft 497 kts 89°
2026-04-22 03:43 17.92401 -71.97529 39889 ft 500 kts 89°
2026-04-22 03:44 17.92502 -71.93890 39599 ft 495 kts 90°
2026-04-22 03:44 17.92592 -71.90294 39146 ft 491 kts 90°
2026-04-22 03:44 17.92682 -71.86754 38533 ft 491 kts 90°
2026-04-22 03:44 17.92774 -71.83167 37866 ft 491 kts 89°
2026-04-22 03:45 17.92864 -71.79598 37377 ft 487 kts 89°
2026-04-22 03:45 17.92953 -71.76056 36934 ft 482 kts 89°
2026-04-22 03:45 17.93041 -71.72543 36452 ft 479 kts 89°
2026-04-22 03:45 17.93127 -71.69056 35942 ft 477 kts 89°
2026-04-22 03:46 17.93302 -71.65573 35346 ft 477 kts 80°
2026-04-22 03:46 17.94193 -71.62223 34725 ft 475 kts 66°
2026-04-22 03:46 17.95337 -71.58987 34321 ft 471 kts 68°
2026-04-22 03:46 17.96451 -71.55766 33844 ft 468 kts 68°
2026-04-22 03:47 17.97577 -71.52564 33270 ft 466 kts 67°
2026-04-22 03:47 17.98706 -71.49373 32730 ft 465 kts 67°
2026-04-22 03:47 17.99829 -71.46207 32226 ft 462 kts 67°
2026-04-22 03:47 18.00947 -71.43051 31715 ft 460 kts 67°
2026-04-22 03:48 18.02047 -71.39947 31203 ft 458 kts 67°
2026-04-22 03:48 18.03155 -71.36817 30691 ft 456 kts 67°
2026-04-22 03:48 18.04262 -71.33691 30177 ft 455 kts 67°
2026-04-22 03:48 18.05362 -71.30578 29572 ft 454 kts 67°
2026-04-22 03:49 18.06456 -71.27484 29039 ft 451 kts 67°
2026-04-22 03:49 18.07545 -71.24400 28527 ft 448 kts 67°
2026-04-22 03:49 18.08627 -71.21337 28032 ft 444 kts 67°
2026-04-22 03:49 18.09699 -71.18299 27526 ft 441 kts 68°
2026-04-22 03:50 18.10764 -71.15281 27022 ft 438 kts 68°
2026-04-22 03:50 18.11818 -71.12288 26532 ft 435 kts 68°
2026-04-22 03:50 18.12867 -71.09311 26031 ft 433 kts 68°
2026-04-22 03:50 18.13910 -71.06348 25536 ft 431 kts 68°
2026-04-22 03:51 18.14945 -71.03408 25047 ft 429 kts 68°
2026-04-22 03:51 18.15981 -71.00461 24549 ft 427 kts 68°
2026-04-22 03:51 18.17012 -70.97527 24058 ft 426 kts 68°
2026-04-22 03:51 18.18024 -70.94647 23557 ft 425 kts 68°
2026-04-22 03:52 18.19046 -70.91735 22985 ft 423 kts 68°
2026-04-22 03:52 18.20061 -70.88845 22477 ft 419 kts 68°
2026-04-22 03:52 18.21068 -70.85974 21995 ft 416 kts 68°
2026-04-22 03:52 18.22063 -70.83134 21519 ft 412 kts 68°
2026-04-22 03:53 18.23049 -70.80319 21037 ft 409 kts 68°
2026-04-22 03:53 18.24028 -70.77524 20567 ft 405 kts 68°
2026-04-22 03:53 18.24999 -70.74751 20095 ft 402 kts 68°
2026-04-22 03:53 18.25963 -70.71996 19621 ft 400 kts 68°
2026-04-22 03:54 18.26917 -70.69264 19156 ft 397 kts 68°
2026-04-22 03:54 18.27867 -70.66547 18687 ft 394 kts 69°
2026-04-22 03:54 18.28810 -70.63849 18200 ft 392 kts 69°
2026-04-22 03:54 18.29748 -70.61160 17674 ft 389 kts 69°
2026-04-22 03:55 18.30679 -70.58492 17160 ft 387 kts 69°
2026-04-22 03:55 18.31601 -70.55847 16646 ft 384 kts 69°
2026-04-22 03:55 18.32505 -70.53253 16157 ft 381 kts 69°
2026-04-22 03:55 18.33414 -70.50644 15659 ft 378 kts 69°
2026-04-22 03:56 18.34317 -70.48052 15183 ft 375 kts 69°
2026-04-22 03:56 18.35209 -70.45488 14713 ft 371 kts 69°
2026-04-22 03:56 18.36087 -70.42966 14257 ft 368 kts 69°
2026-04-22 03:56 18.36963 -70.40447 13786 ft 365 kts 69°
2026-04-22 03:57 18.37831 -70.37949 13273 ft 362 kts 69°
2026-04-22 03:57 18.38692 -70.35471 12771 ft 358 kts 69°
2026-04-22 03:57 18.39534 -70.33047 12279 ft 351 kts 69°
2026-04-22 03:57 18.40367 -70.30645 11796 ft 344 kts 69°
2026-04-22 03:58 18.41184 -70.28292 11382 ft 339 kts 69°
2026-04-22 03:58 18.41984 -70.25984 11053 ft 333 kts 69°
2026-04-22 03:58 18.42769 -70.23718 10709 ft 327 kts 69°
2026-04-22 03:58 18.43543 -70.21484 10365 ft 321 kts 69°
2026-04-22 03:59 18.44303 -70.19289 10022 ft 316 kts 69°
2026-04-22 03:59 18.44943 -70.17440 9713 ft 312 kts 69°
2026-04-22 04:00 18.45180 -70.16756 9594 ft 311 kts 69°
2026-04-22 04:00 18.45917 -70.14625 9217 ft 307 kts 69°
2026-04-22 04:00 18.46640 -70.12536 8911 ft 300 kts 69°
2026-04-22 04:00 18.47345 -70.10495 8651 ft 292 kts 69°
2026-04-22 04:01 18.48032 -70.08508 8392 ft 285 kts 69°
2026-04-22 04:01 18.48705 -70.06561 8135 ft 279 kts 68°
2026-04-22 04:01 18.49359 -70.04666 7876 ft 273 kts 68°
2026-04-22 04:01 18.50004 -70.02798 7619 ft 268 kts 68°
2026-04-22 04:02 18.50634 -70.00972 7366 ft 263 kts 68°
2026-04-22 04:02 18.51253 -69.99178 7110 ft 258 kts 68°
2026-04-22 04:02 18.51861 -69.97415 6861 ft 254 kts 68°
2026-04-22 04:02 18.52460 -69.95678 6606 ft 250 kts 68°
2026-04-22 04:03 18.53043 -69.93987 6355 ft 247 kts 68°
2026-04-22 04:03 18.53621 -69.92308 6089 ft 243 kts 68°
2026-04-22 04:03 18.54194 -69.90645 5830 ft 240 kts 68°
2026-04-22 04:03 18.54761 -69.89001 5552 ft 236 kts 68°
2026-04-22 04:04 18.55319 -69.87379 5297 ft 234 kts 68°
2026-04-22 04:04 18.55870 -69.85780 5038 ft 231 kts 68°
2026-04-22 04:04 18.56410 -69.84209 4775 ft 228 kts 68°
2026-04-22 04:04 18.56949 -69.82641 4510 ft 226 kts 68°
2026-04-22 04:05 18.57481 -69.81082 4241 ft 223 kts 69°
2026-04-22 04:05 18.57999 -69.79549 3985 ft 221 kts 69°
2026-04-22 04:05 18.58512 -69.78031 3741 ft 218 kts 69°
2026-04-22 04:05 18.59014 -69.76546 3449 ft 218 kts 69°
2026-04-22 04:06 18.59465 -69.74998 3128 ft 219 kts 83°
2026-04-22 04:06 18.59115 -69.73473 2782 ft 223 kts 124°
2026-04-22 04:06 18.57891 -69.72500 2469 ft 225 kts 158°
2026-04-22 04:06 18.56407 -69.71984 2173 ft 222 kts 160°
2026-04-22 04:07 18.54966 -69.71472 1884 ft 216 kts 160°
2026-04-22 04:07 18.53579 -69.70974 1711 ft 203 kts 160°
2026-04-22 04:07 18.52329 -69.70520 1562 ft 179 kts 160°
2026-04-22 04:07 18.51220 -69.70110 1343 ft 158 kts 160°
2026-04-22 04:08 18.50229 -69.69748 1162 ft 149 kts 159°
2026-04-22 04:08 18.49237 -69.69379 1031 ft 154 kts 160°
2026-04-22 04:08 18.48211 -69.69017 880 ft 157 kts 160°
2026-04-22 04:08 18.47210 -69.68659 692 ft 151 kts 161°
2026-04-22 04:09 18.46227 -69.68309 482 ft 147 kts 159°
2026-04-22 04:09 18.45265 -69.67938 309 ft 147 kts 160°
2026-04-22 04:09 18.44308 -69.67581 122 ft 144 kts 159°
2026-04-22 04:09 18.43425 -69.67253 68 ft 116 kts 160°
2026-04-22 04:10 18.42810 -69.67030 72 ft 71 kts 161°
2026-04-22 04:10 18.42498 -69.66916 70 ft 35 kts 160°
2026-04-22 04:10 18.42335 -69.66845 67 ft 20 kts 134°
2026-04-22 04:10 18.42258 -69.66823 70 ft 5 kts 263°
2026-04-22 04:11 18.42272 -69.66840 67 ft 6 kts 339°
2026-04-22 04:11 18.42336 -69.66860 63 ft 12 kts 341°
2026-04-22 04:11 18.42425 -69.66892 59 ft 15 kts 341°
2026-04-22 04:11 18.42533 -69.66931 70 ft 17 kts 341°
2026-04-22 04:12 18.42655 -69.66975 69 ft 20 kts 341°
2026-04-22 04:12 18.42792 -69.67025 72 ft 17 kts 341°
2026-04-22 04:12 18.42898 -69.67063 69 ft 9 kts 336°
2026-04-22 04:12 18.42947 -69.67107 72 ft 6 kts 291°
2026-04-22 04:13 18.42953 -69.67173 68 ft 13 kts 273°
2026-04-22 04:13 18.42960 -69.67264 61 ft 9 kts 278°
2026-04-22 04:13 18.42964 -69.67303 65 ft 3 kts 264°
2026-04-22 04:13 18.42963 -69.67308 65 ft 0 kts 257°
2026-04-22 04:14 18.42960 -69.67315 66 ft 2 kts 243°
2026-04-22 04:14 18.42948 -69.67330 66 ft 1 kts 227°
2026-04-22 04:14 18.42925 -69.67357 69 ft 8 kts 242°
2026-04-22 04:14 18.42918 -69.67394 70 ft 3 kts 254°
2026-04-22 04:15 18.42914 -69.67400 70 ft 1 kts 233°
2026-04-22 04:15 18.42903 -69.67411 65 ft 4 kts 230°
2026-04-22 04:15 18.42901 -69.67428 69 ft 0 kts 275°
2026-04-22 04:15 18.42902 -69.67422 68 ft 0 kts 271°